STARLINK-5113 (53988 NORAD) Tracking and Keplerian Element Data

This shows tracking and keplerian element data for the satellite.

Feedback or suggestion? Click here.




ElementValue
Catalog53988
NameSTARLINK-5113
Epoch Orbit765
Epoch Day325.25001157
Epoch Year2022
RAAN223.9013
Inclination53.2167
Eccentricity0.0001253
Argument of Perigee88.3927
Mean Anonmoly235.1822
Mean Motion15.49864098
Decay Rate0.00028083
L11 53988U 22125AA 22325.25001157 .00028083 00000+0 50134-3 0 9996
L22 53988 53.2167 223.9013 0001253 88.3927 235.1822 15.49864098 7652



Live tracking and technical data element details for STARLINK-5113 (NORAD 53988). STARLINK-5113 can be tracked NOW for your location showing map with azimuth and elevation plus other details from your city location.







IsCatalogInMostPopularTable: catalog: 53988, numindb: 7
Update: records affected: 1



GetName: 53988 STARLINK-5113

Hit Count: updated at: Mon, 28 Nov 2022 21:50:22 GMT